Location: Columbus
(29.5618°N, 96.6770°W)
Time: 17:48:40
(UTC-05:00)

Daily predictions for brighter satellites

Satellite Brightness Start Highest point End
(mag) Time Altitude Azimuth Time Altitude Azimuth Time Altitude Azimuth
Cosmos 2333 Rocket 2.6 20:47:37 10° NNW 20:53:14 68° WSW 20:58:48 10° S
Cosmos 1605 Rocket 4.3 20:48:30 10° N 20:54:37 52° E 21:00:48 10° SSE
H-2A R/B 3.2 20:53:17 10° S 20:57:01 64° W 21:00:51 10° NNW
Cosmos 1140 Rocket 4.1 20:53:11 10° SSW 20:58:17 62° WNW 21:03:24 10° N
Envisat 3.8 20:54:58 10° SE 20:59:30 34° ENE 21:04:04 10° N
Cosmos 2221 4.0 20:58:30 10° NNE 21:01:50 21° ENE 21:05:08 10° SE
Cosmos 2098 Rocket 4.4 20:56:15 10° N 21:03:52 75° E 21:10:46 10° S
Cosmos 2297 Rocket 4.1 21:02:00 10° SW 21:07:08 35° WNW 21:12:17 10° N
Meteor 1-29 4.1 21:06:38 10° NE 21:09:30 25° E 21:12:23 10° SSE
Cosmos 1727 Rocket 4.0 21:03:59 10° S 21:10:16 78° E 21:16:37 10° N
ATLAS 5 CENTAUR R/B 3.5 21:08:17 10° SW 21:12:30 37° NW 21:17:01 10° NNE
Cosmos 2263 Rocket 3.9 21:11:05 10° ESE 21:13:03 12° E 21:15:05 10° ENE
H-2A R/B 4.3 13:23:15 10° WSW 21:13:33 35° SW 21:19:08 10° SSE
Meteor 2-1 Rocket 4.4 21:07:56 10° N 21:13:36 57° E 21:19:07 10° SSE
Abrixas 2.0 21:14:05 10° SW 21:16:45 83° SE 21:19:26 10° NE
Helios 1B rocket 2.5 21:18:56 10° NNE 21:23:01 58° ESE 21:27:04 10° S
Okean 3 Rocket 3.6 21:21:22 10° S 21:25:50 70° E 21:30:17 10° N
USA 32 4.0 21:23:52 10° S 21:29:07 90° W 21:34:23 10° N
Star 37E S/N 40062 4.4 21:28:27 10° SSW 21:30:20 22° SE 21:31:27 19° ESE
Cosmos 1570 Rocket 4.4 21:25:31 10° N 21:30:36 47° ENE 21:34:26 17° SE
Cosmos 1766 Rocket 4.3 21:27:53 13° SSE 21:31:10 33° E 21:35:04 10° NNE
Helios 1A 3.1 21:31:12 15° SSE 21:34:27 54° ENE 21:38:30 10° N
Meteor 1-21 Rocket 4.2 21:31:46 10° S 21:37:23 65° E 21:42:56 10° NNE
Cosmos 1356 Rocket 3.4 21:34:51 10° S 21:39:04 75° E 21:43:20 10° NNE
USA 234 3.6 21:33:39 10° ENE 21:39:41 40° SE 21:45:42 10° SSW
CZ-4B DEB 3.2 21:38:54 27° ESE 21:39:58 38° ENE 21:42:45 10° N
Skynet4D Del rocket 4.4 21:37:04 10° W 21:42:18 41° SSW 21:45:58 21° SE
Cosmos 1674 2.5 21:38:49 10° S 21:42:34 86° E 21:46:20 10° N
Cosmos 2237 Rocket 3.6 21:37:58 10° NW 21:42:59 34° WSW 21:48:00 10° SSW
Delta 2 Rocket 4.4 21:38:37 10° W 21:44:08 67° NNW 21:49:55 10° ENE
Palapa 6 Rocket 4.3 21:38:51 10° WSW 21:44:09 34° SSW 21:46:35 22° SE
ERS-1 Rocket 3.8 21:41:51 20° ESE 21:44:27 33° ENE 21:48:55 10° N
Cosmos 1242 Rocket 3.0 21:41:16 10° N 21:44:49 43° E 21:46:19 28° SE
Sakura Rocket 4.4 21:41:12 10° W 21:50:37 85° S 21:56:13 17° E
SJ-11-01 4.3 21:47:43 15° S 21:51:39 85° W 21:56:25 10° NNW
RESURS DK-1 3.8 21:50:13 10° N 21:53:36 23° ENE 21:54:38 21° E
Cosmos 220 Rocket 4.0 21:56:29 14° S 22:00:17 65° ESE 22:04:39 10° NNE
Resurs 01 Rocket 4.0 21:57:18 10° SW 22:00:30 20° W 22:03:44 10° NW
Cosmos 1939 Rocket 3.4 21:58:07 17° S 22:01:04 56° W 22:05:03 10° NNW
Cosmos 1908 3.2 22:02:22 10° N 22:06:13 79° W 22:07:55 32° S
Cosmos 371 Rocket 4.5 22:02:29 10° NNE 22:06:29 26° ENE 22:07:24 24° E
KORONAS-FOTON 4.0 22:03:48 16° SSW 22:06:42 68° W 22:10:28 10° N
Cosmos 2228 Rocket 4.4 22:03:14 10° NNE 22:06:59 25° ENE 22:07:15 25° E
SL-16 R/B 2.8 22:04:13 10° NNW 22:09:43 53° WSW 22:13:40 19° S
Cosmos 1459 Rocket 3.9 22:09:23 10° N 22:15:39 86° W 22:19:38 23° S
GPS 2-05 Rocket1 4.3 22:13:32 10° WNW 22:16:20 30° N 22:17:46 20° NE
H-2A R/B 3.2 22:17:23 26° E 22:18:22 28° ENE 22:22:54 10° NNE
ERBS 4.5 22:16:13 10° N 22:18:26 16° NE 22:18:29 16° NE
H-2A ROCKET BODY 1.9 22:21:47 10° WSW 22:24:43 57° SSE 22:34:32 10° E
SPOT 5 3.3 22:24:13 41° E 22:25:00 45° ENE 22:29:48 10° N
SL-08 RB Rocket 4.3 22:25:51 39° E 22:26:09 39° ENE 22:30:26 10° N
Cosmos 2151 3.8 22:27:50 36° ENE 22:27:50 36° ENE 22:31:08 10° NNE
Cosmos 2100 Rocket 4.4 22:21:11 10° NNW 22:27:25 63° W 22:31:57 20° SSW
YAOGAN 6 4.0 22:26:34 25° SW 22:27:55 34° W 22:31:18 10° NNW
Cosmos 2123 Rocket 3.9 22:25:58 25° S 22:29:45 87° E 22:35:58 10° N
Lacrosse 5 2.2 22:25:08 10° NNW 22:30:03 50° NE 22:31:05 43° E
NOAA 11 4.1 22:29:14 40° SSE 22:31:17 88° WSW 22:36:44 10° NNW
Cosmos 2173 Rocket 4.4 22:27:45 10° NNW 22:33:50 61° W 22:37:51 22° SSW
Meteor 2-10 4.3 22:29:47 10° N 22:35:24 60° E 22:36:32 50° SE
Cosmos 1626 4.1 22:38:04 19° NE 22:38:04 19° NE 22:39:27 10° NNE
MetOp-B 4.0 22:34:37 48° SSE 22:36:13 87° ENE 22:41:35 10° NNW
Atlas Centaur 2 2.8 22:34:57 10° W 22:36:52 22° WSW 22:36:52 22° WSW
Cosmos 1354 Rocket 3.9 22:45:33 64° ESE 22:45:40 64° ESE 22:50:51 10° NNE
Cosmos 1726 2.6 22:42:10 10° NNW 22:45:24 57° WNW 22:45:24 57° WNW
Terra 3.3 22:50:32 24° ENE 22:50:32 24° ENE 22:53:39 10° NNE
Meteor 1-11 4.2 22:48:57 52° S 22:50:27 85° E 22:56:17 10° N
Cosmos 1500 Rocket 3.5 22:50:42 82° W 22:50:44 82° W 22:55:12 10° N
Cosmos 1814 Rocket 3.8 22:45:58 10° NNW 22:51:18 84° ENE 22:51:48 73° SE
Milstar 3 Cent rocket 4.0 22:48:47 10° W 22:56:15 50° SSW 23:00:26 38° SSE
Cosmos 2263 Rocket 2.5 22:52:37 21° SW 22:56:19 61° WNW 23:01:50 10° NNE
Cosmos 1763 Rocket 3.3 22:51:30 10° N 22:56:30 71° ENE 22:56:30 71° ENE
Cosmos 841 Rocket 3.7 22:51:46 10° N 22:56:41 53° ENE 22:56:41 53° ENE
Cosmos 332 Rocket 3.9 22:53:13 10° NNW 22:58:05 65° WSW 22:58:23 63° SW
Cosmos 1725 Rocket 4.0 22:53:05 10° N 22:59:19 79° W 23:00:51 53° SSW
Cosmos 1300 3.7 22:58:17 10° NNW 23:01:19 44° WNW 23:01:19 44° WNW
DMSP B5D2-2 4.0 23:07:13 10° N 23:12:26 82° WNW 23:12:26 82° WNW
Meteor 1-27 4.1 23:07:40 10° N 23:13:25 81° ENE 23:13:25 81° ENE
SPOT 1/Viking Rocket 3.5 23:13:42 76° W 23:13:42 76° W 23:18:44 10° NNW
Cosmos 1151 Rocket 3.9 23:13:08 10° N 23:16:22 48° NNW 23:16:22 48° NNW
USA 234 4.2 23:16:29 10° NNE 23:22:36 45° NW 23:28:44 10° WSW
H-2A R/B 3.8 23:24:41 26° NNE 23:24:41 26° NNE 23:26:50 10° N
Cosmos 2058 4.4 23:26:59 35° NW 23:26:59 35° NW 23:30:08 10° NNW
ARGOS 4.3 23:28:09 33° WSW 23:28:48 34° W 23:33:41 10° NW
Cosmos 1844 Rocket 4.1 23:31:43 26° NE 23:31:43 26° NE 23:34:16 10° NE
CZ-4C R/B 2.8 23:31:21 45° NNE 23:31:21 45° NNE 23:35:15 10° NNE
Cosmos 540 Rocket 4.4 23:44:48 10° NNW 23:48:19 44° N 23:48:19 44° N
Cosmos 1943 4.1 23:44:53 10° NW 23:49:30 42° W 23:49:30 42° W
